sat.trackr.live / text

‹ back to catalog

KUIPER-00481

NORAD 69594 · 2026-140C

PAYLOAD ACTIVE UNKNOWN

§ Identity

Operator
Country
US
Launch date
2026-06-17
Launch site
FRGUI
Launch vehicle
Mass (kg)
RCS (m²)

External: N2YO · Heavens-Above · Gunter

§ Orbital elements

Epoch: 2026-09-20T04:02:27.541248Z

Period
97.53 min
Inclination
51.9015°
Eccentricity
0.0001926
Mean motion
14.76499259 rev/d
Perigee alt
639.0 km
Apogee alt
641.7 km
Semi-major
7,018.5 km
B*
1.2598e-4
RAAN
310.4904°
Arg perigee
340.4685°
Mean anomaly
19.6202°
Rev number
1,569

§ Raw data

KUIPER-004811 69594U 26140C   26263.16837432  .00000671  00000+0  12598-3 0  99902 69594  51.9015 310.4904 0001926 340.4685  19.6202 14.76499259 15692

JSON: /api/v1/satellites/69594 · /tle

For live sub-satellite position, see the globe view (requires WebGL).

§ Visibility from observer

Set your observer location to see the next 7 days of passes ≥ 10°. The values pass through the URL so the page stays shareable.

No JS? Fill the form by hand. The geolocation button needs JavaScript.